Location: Marcé
(47.5801°N, 0.3280°W)
Time: 03:43:13
(UTC+01:00)

Vanguard 3 - Pass Details

Date: 09 December 2021
Orbit: 508 x 3260 km, 33.3° (Epoch: 19 January)

Event Time Altitude Azimuth Distance (km) Brightness Sun altitude
Exits shadow 01:36:51 20° 110° (ESE) 5,399 11.2 -63.8°
Drops below altitude 10° 01:43:02 10° 94° (E) 6,163 11.7 -63.3°
Sets 01:48:53 0° 84° (E) 7,038 12.1 -62.9°
